KQ4Q-8 Weather Reports


time (UTC)temp
F
wind
direction
speed
knots
gust
knots
rain 1hr
in
rain 24hr
in
rain mn
in
humidity
%
barometer
mb
20260508121105 41 188 2.6 2.6 0.00 0.00 0.00 80 1017.4
20260508120553 40 268 1.7 1.7 0.00 0.00 0.00 82 1017.4
20260508120052 39 281 1.7 2.6 0.00 0.00 0.00 82 1017.4
20260508115553 38 280 1.7 1.7 0.00 0.00 0.00 84 1017.4
20260508115053 38 282 0.9 1.7 0.00 0.00 0.00 87 1017.3
20260508114558 37 300 0.9 0.9 0.00 0.00 0.00 88 1017.3
20260508114053 37 297 1.7 1.7 0.00 0.00 0.00 89 1017.3
20260508113553 36 288 1.7 1.7 0.00 0.00 0.00 90 1017.2
20260508113056 36 298 1.7 1.7 0.00 0.00 0.00 91 1017.2
20260508112553 36 299 1.7 1.7 0.00 0.00 0.00 91 1017.1
20260508112053 35 295 1.7 1.7 0.00 0.00 0.00 91 1017.1
20260508111554 35 277 0.9 0.9 0.00 0.00 0.00 92 1017.0
20260508111053 35 232 0.9 0.9 0.00 0.00 0.00 92 1016.9
20260508110553 35 0 0.0 0.0 0.00 0.00 0.00 92 1016.8
20260508110055 34 255 0.0 0.0 0.00 0.00 0.00 92 1016.8
20260508105553 34 258 0.0 0.9 0.00 0.00 0.00 93 1016.8
20260508105053 34 264 0.9 0.9 0.00 0.00 0.00 93 1016.8
20260508104551 34 279 0.0 0.0 0.00 0.00 0.00 93 1016.7
20260508104051 34 269 1.7 1.7 0.00 0.00 0.00 93 1016.7
20260508103553 34 287 1.7 1.7 0.00 0.00 0.00 94 1016.7
20260508103056 34 277 0.9 1.7 0.00 0.00 0.00 93 1016.7
20260508102553 34 284 1.7 1.7 0.00 0.00 0.00 94 1016.7
20260508102054 34 284 1.7 2.6 0.00 0.00 0.00 94 1016.7
20260508101556 34 278 1.7 1.7 0.00 0.00 0.00 94 1016.7
20260508101053 34 292 1.7 1.7 0.00 0.00 0.00 94 1016.5
20260508100552 34 289 1.7 1.7 0.00 0.00 0.00 94 1016.5
20260508100054 34 283 1.7 1.7 0.00 0.00 0.00 94 1016.4
20260508095554 34 270 2.6 2.6 0.00 0.00 0.00 94 1016.4
20260508095053 34 277 1.7 1.7 0.00 0.00 0.00 94 1016.3
20260508094553 34 283 1.7 2.6 0.00 0.00 0.00 94 1016.3
20260508094053 34 280 1.7 1.7 0.00 0.00 0.00 94 1016.2
20260508093553 34 283 1.7 1.7 0.00 0.00 0.00 94 1016.2
20260508093051 34 276 1.7 1.7 0.00 0.00 0.00 94 1016.2
20260508092553 34 281 1.7 1.7 0.00 0.00 0.00 94 1016.3
20260508092054 34 282 1.7 1.7 0.00 0.00 0.00 94 1016.2
20260508091557 34 283 1.7 1.7 0.00 0.00 0.00 94 1016.2
20260508091056 34 285 1.7 1.7 0.00 0.00 0.00 94 1016.2
20260508090554 35 278 1.7 1.7 0.00 0.00 0.00 94 1016.1
20260508090055 35 281 1.7 2.6 0.00 0.00 0.00 94 1016.1
20260508085555 35 281 1.7 2.6 0.00 0.00 0.00 94 1016.0
20260508085054 35 279 1.7 1.7 0.00 0.00 0.00 94 1016.0
20260508084552 35 277 1.7 1.7 0.00 0.00 0.00 93 1016.1
20260508084052 35 288 1.7 1.7 0.00 0.00 0.00 94 1016.0
20260508083551 35 281 1.7 2.6 0.00 0.00 0.00 93 1016.0
20260508083054 35 283 1.7 2.6 0.00 0.00 0.00 94 1016.0
20260508082553 36 280 1.7 2.6 0.00 0.00 0.00 94 1016.1
20260508082053 36 276 1.7 2.6 0.00 0.00 0.00 94 1016.0
20260508081555 36 284 1.7 2.6 0.00 0.00 0.00 94 1015.9
20260508081053 36 279 1.7 1.7 0.00 0.00 0.00 95 1015.9
20260508080552 36 279 1.7 2.6 0.00 0.00 0.00 94 1015.8
20260508080054 36 284 1.7 1.7 0.00 0.00 0.00 94 1015.8
20260508075555 36 269 1.7 1.7 0.00 0.00 0.00 94 1015.9
20260508075053 36 270 1.7 1.7 0.00 0.00 0.00 94 1015.9
20260508074554 36 273 1.7 1.7 0.00 0.00 0.00 94 1016.0
20260508074051 36 268 1.7 1.7 0.00 0.00 0.00 94 1016.0
20260508073553 37 272 1.7 2.6 0.00 0.00 0.00 94 1015.9
20260508073054 37 254 1.7 1.7 0.00 0.00 0.00 93 1015.9
20260508072553 37 293 1.7 2.6 0.00 0.00 0.00 94 1015.9
20260508072053 37 290 1.7 2.6 0.00 0.00 0.00 94 1015.8
20260508071552 37 290 1.7 2.6 0.00 0.00 0.00 94 1015.8
20260508071055 37 280 1.7 1.7 0.00 0.00 0.00 94 1015.8
20260508070553 37 278 1.7 1.7 0.00 0.00 0.00 94 1015.8
20260508070053 37 259 0.9 1.7 0.00 0.00 0.00 94 1015.8
20260508065553 37 278 1.7 2.6 0.00 0.00 0.00 94 1015.8
20260508065055 37 251 0.9 1.7 0.00 0.00 0.00 93 1015.8
20260508064555 38 272 0.0 0.9 0.00 0.00 0.00 93 1015.8
20260508064053 38 287 1.7 1.7 0.00 0.00 0.00 93 1015.8
20260508063553 38 289 1.7 2.6 0.00 0.00 0.00 93 1015.9
20260508063053 38 286 1.7 1.7 0.00 0.00 0.00 93 1015.8
20260508062553 38 277 1.7 1.7 0.00 0.00 0.00 92 1015.8
20260508062054 38 288 1.7 1.7 0.00 0.00 0.00 92 1015.9
20260508061555 38 283 1.7 1.7 0.00 0.00 0.00 91 1016.0
20260508061053 38 289 1.7 1.7 0.00 0.00 0.00 90 1016.0
20260508060554 38 284 1.7 2.6 0.00 0.00 0.00 89 1016.0
20260508060054 39 284 1.7 1.7 0.00 0.00 0.00 86 1016.0
20260508055553 39 281 1.7 1.7 0.00 0.00 0.00 83 1016.1
20260508055052 40 280 0.9 1.7 0.00 0.00 0.00 80 1016.1
20260508054555 40 247 0.9 1.7 0.00 0.00 0.00 78 1016.1
20260508054053 40 298 0.0 0.9 0.00 0.00 0.00 78 1016.1
20260508053554 41 228 0.0 0.9 0.00 0.00 0.00 77 1016.0
20260508053052 41 0 0.0 0.0 0.00 0.00 0.00 78 1016.0
20260508052552 41 288 0.0 0.9 0.00 0.00 0.00 77 1015.9
20260508052053 41 307 0.0 0.9 0.00 0.00 0.00 78 1015.9
20260508051554 41 316 0.0 0.9 0.00 0.00 0.00 79 1015.9
20260508051056 41 273 0.0 0.9 0.00 0.00 0.00 78 1015.8
20260508050553 41 284 0.0 0.9 0.00 0.00 0.00 77 1015.7
20260508050054 41 0 0.0 0.0 0.00 0.00 0.00 78 1015.7
20260508045552 42 257 0.0 0.0 0.00 0.00 0.00 78 1015.6
20260508045051 42 0 0.0 0.0 0.00 0.00 0.00 78 1015.5
20260508044551 42 199 0.0 1.7 0.00 0.00 0.00 79 1015.5
20260508044055 42 210 0.0 0.9 0.00 0.00 0.00 77 1015.4
20260508043553 42 288 0.0 0.9 0.00 0.00 0.00 77 1015.4
20260508043053 42 261 0.0 0.0 0.00 0.00 0.00 78 1015.4
20260508042551 42 315 0.9 1.7 0.00 0.00 0.00 79 1015.5
20260508042051 42 287 0.0 0.0 0.00 0.00 0.00 79 1015.5
20260508041553 42 194 0.0 0.9 0.00 0.00 0.00 80 1015.5
20260508041053 42 282 0.0 0.0 0.00 0.00 0.00 80 1015.5
20260508040556 43 326 0.0 0.0 0.00 0.00 0.00 80 1015.5
20260508040056 43 264 0.0 0.9 0.00 0.00 0.00 80 1015.4
20260508035554 43 11 0.0 0.9 0.00 0.00 0.00 81 1015.4
20260508035052 43 247 0.9 1.7 0.00 0.00 0.00 79 1015.2
20260508034551 43 0 0.0 0.0 0.00 0.00 0.00 79 1015.2
20260508034052 43 278 0.0 0.0 0.00 0.00 0.00 79 1015.2
20260508033555 44 286 0.0 0.9 0.00 0.00 0.00 80 1015.2
20260508033055 44 242 0.0 0.9 0.00 0.00 0.00 79 1015.2
20260508032556 44 0 0.0 0.0 0.00 0.00 0.00 79 1015.2
20260508032054 44 0 0.0 0.0 0.00 0.00 0.00 78 1015.2
20260508031553 45 241 0.0 0.9 0.00 0.00 0.00 77 1015.2
20260508031052 44 320 0.0 0.9 0.00 0.00 0.00 78 1015.2
20260508030552 45 280 0.0 0.0 0.00 0.00 0.00 79 1015.2
20260508030053 45 0 0.0 0.0 0.00 0.00 0.00 79 1015.1
20260508025552 46 0 0.0 0.0 0.00 0.00 0.00 77 1015.0
20260508025052 46 284 0.0 0.9 0.00 0.00 0.00 75 1015.0
20260508024551 46 0 0.0 0.0 0.00 0.00 0.00 75 1014.9
20260508024051 46 285 0.0 0.9 0.00 0.00 0.00 75 1014.8
20260508023552 46 0 0.0 0.0 0.00 0.00 0.00 76 1014.8
20260508023053 47 243 0.0 0.0 0.00 0.00 0.00 75 1014.8
20260508022554 47 238 0.0 0.9 0.00 0.00 0.00 74 1014.8
20260508022052 47 308 0.9 1.7 0.00 0.00 0.00 74 1014.7
20260508021552 48 297 0.0 0.9 0.00 0.00 0.00 73 1014.6
20260508021052 48 0 0.0 0.0 0.00 0.00 0.00 72 1014.5
20260508020551 48 241 0.0 1.7 0.00 0.00 0.00 74 1014.4
20260508020053 48 283 0.9 1.7 0.00 0.00 0.00 72 1014.4
20260508015552 47 0 0.0 0.0 0.00 0.00 0.00 74 1014.4
20260508015051 47 241 1.7 2.6 0.00 0.00 0.00 74 1014.3
20260508014551 47 309 0.0 0.9 0.00 0.00 0.00 76 1014.3
20260508014052 48 252 1.7 2.6 0.00 0.00 0.00 73 1014.2
20260508013552 48 334 0.0 1.7 0.00 0.00 0.00 74 1014.2
20260508013051 48 0 0.0 0.0 0.00 0.00 0.00 74 1014.1
20260508012551 48 292 0.0 0.9 0.00 0.00 0.00 74 1014.1
20260508012052 48 297 0.0 0.9 0.00 0.00 0.00 73 1014.0
20260508011553 49 247 0.0 0.9 0.00 0.00 0.00 72 1014.0
20260508011051 49 328 0.9 1.7 0.00 0.00 0.00 73 1013.8
20260508010551 49 264 0.0 0.9 0.00 0.00 0.00 71 1013.8
20260508010055 49 255 0.9 1.7 0.00 0.00 0.00 73 1013.8
20260508005552 49 269 0.0 1.7 0.00 0.00 0.00 71 1013.8
20260508005052 49 310 1.7 2.6 0.00 0.00 0.00 71 1013.8
20260508004551 50 312 0.0 1.7 0.00 0.00 0.00 72 1013.7
20260508004054 50 264 0.0 0.9 0.00 0.00 0.00 70 1013.6
20260508003553 50 234 0.9 1.7 0.00 0.00 0.00 70 1013.5
20260508003054 50 265 0.9 1.7 0.00 0.00 0.00 70 1013.5
20260508002553 51 303 0.9 1.7 0.00 0.00 0.00 70 1013.5
20260508002051 51 288 0.9 1.7 0.00 0.00 0.00 68 1013.5
20260508001552 51 251 2.6 3.5 0.00 0.00 0.00 67 1013.5
20260508001053 52 267 1.7 3.5 0.00 0.00 0.00 67 1013.5
20260508000552 52 0 0.0 0.0 0.00 0.00 0.00 68 1013.4
20260508000053 52 227 0.0 1.7 0.00 0.00 0.00 67 1013.4
20260507235551 52 241 2.6 4.3 0.00 0.00 0.00 67 1013.5
20260507235053 52 244 2.6 3.5 0.00 0.00 0.00 66 1013.4
20260507234554 52 278 2.6 3.5 0.00 0.00 0.00 65 1013.4
20260507234053 53 252 2.6 4.3 0.00 0.00 0.00 64 1013.4
20260507233552 53 268 4.3 5.2 0.00 0.00 0.00 63 1013.4
20260507233052 54 293 2.6 4.3 0.00 0.00 0.00 63 1013.3
20260507232553 54 296 1.7 2.6 0.00 0.00 0.00 64 1013.3
20260507232052 53 326 1.7 4.3 0.00 0.00 0.00 63 1013.2
20260507231553 53 354 2.6 7.0 0.00 0.00 0.00 67 1013.3
20260507231059 53 219 1.7 3.5 0.00 0.00 0.00 66 1013.3
20260507230552 53 229 1.7 2.6 0.00 0.00 0.00 66 1013.2
20260507230052 53 222 1.7 3.5 0.00 0.00 0.00 66 1013.1
20260507225552 54 225 1.7 2.6 0.00 0.00 0.00 65 1013.1
20260507225051 54 263 1.7 2.6 0.00 0.00 0.00 66 1013.2
20260507224554 54 241 1.7 3.5 0.00 0.00 0.00 65 1013.2
20260507224051 54 279 3.5 5.2 0.00 0.00 0.00 64 1013.1
20260507223551 54 214 2.6 5.2 0.00 0.00 0.00 64 1013.1
20260507223053 54 258 3.5 7.0 0.00 0.00 0.00 65 1013.0
20260507222552 54 281 2.6 3.5 0.00 0.00 0.00 65 1013.0
20260507222053 54 240 1.7 3.5 0.00 0.00 0.00 65 1013.0
20260507221552 54 299 2.6 5.2 0.00 0.00 0.00 65 1012.9
20260507221052 54 272 1.7 3.5 0.00 0.00 0.00 65 1012.9
20260507220553 54 250 3.5 5.2 0.00 0.00 0.00 64 1012.9
20260507220055 54 263 3.5 5.2 0.00 0.00 0.00 65 1012.8
20260507215551 54 307 3.5 7.0 0.00 0.00 0.00 65 1012.8
20260507215053 54 249 2.6 5.2 0.00 0.00 0.00 65 1012.7
20260507214552 54 241 2.6 4.3 0.00 0.00 0.00 66 1012.7
20260507214101 54 295 1.7 1.7 0.00 0.00 0.00 68 1012.7
20260507213555 54 250 1.7 3.5 0.00 0.00 0.00 65 1012.7
20260507213053 54 275 1.7 3.5 0.00 0.00 0.00 67 1012.7
20260507212553 53 346 0.9 3.5 0.00 0.00 0.00 67 1012.7
20260507212053 53 279 1.7 2.6 0.00 0.00 0.00 66 1012.5
20260507211552 53 273 1.7 2.6 0.00 0.00 0.00 67 1012.5
20260507211054 53 238 3.5 5.2 0.00 0.00 0.00 65 1012.4
20260507210552 53 265 3.5 4.3 0.00 0.00 0.00 65 1012.3
20260507210054 53 279 2.6 5.2 0.00 0.00 0.00 66 1012.2
20260507205552 53 337 1.7 4.3 0.00 0.00 0.00 66 1012.3
20260507205052 53 275 1.7 3.5 0.00 0.00 0.00 66 1012.3
20260507204551 54 256 1.7 3.5 0.00 0.00 0.00 67 1012.3
20260507204054 53 283 1.7 3.5 0.00 0.00 0.00 68 1012.3
20260507203551 54 326 3.5 5.2 0.00 0.00 0.00 67 1012.2
20260507203053 53 264 1.7 2.6 0.00 0.00 0.00 66 1012.3
20260507202553 53 271 3.5 5.2 0.00 0.00 0.00 67 1012.4
20260507202052 53 248 4.3 6.1 0.00 0.00 0.00 67 1012.5
20260507201555 53 259 2.6 5.2 0.00 0.00 0.00 67 1012.7
20260507201053 52 244 2.6 4.3 0.00 0.00 0.00 69 1012.5
20260507200556 52 255 3.5 7.0 0.00 0.00 0.00 69 1012.7
20260507200053 53 251 2.6 3.5 0.00 0.00 0.00 69 1012.7
20260507195555 53 216 4.3 7.0 0.00 0.00 0.00 69 1012.8
20260507195055 53 300 2.6 5.2 0.00 0.00 0.00 69 1012.7
20260507194554 53 259 0.9 1.7 0.00 0.00 0.00 71 1012.5
20260507194054 53 266 1.7 3.5 0.00 0.00 0.00 71 1012.4
20260507193554 53 338 0.9 3.5 0.00 0.00 0.00 70 1012.5
20260507193052 53 312 2.6 3.5 0.00 0.00 0.00 71 1012.7
20260507192551 53 245 2.6 3.5 0.00 0.00 0.00 70 1012.7
20260507192055 54 339 1.7 3.5 0.00 0.00 0.00 69 1012.7
20260507191554 54 21 1.7 3.5 0.00 0.00 0.00 67 1012.8
20260507191053 54 252 2.6 4.3 0.00 0.00 0.00 69 1012.9
20260507190554 54 270 2.6 4.3 0.00 0.00 0.00 68 1012.9
20260507190053 53 224 1.7 3.5 0.00 0.00 0.00 69 1012.9
20260507185554 53 205 1.7 4.3 0.00 0.00 0.00 69 1013.0
20260507185052 53 245 1.7 3.5 0.00 0.00 0.00 69 1013.2
20260507184554 52 195 1.7 2.6 0.00 0.00 0.00 69 1013.1
20260507184054 52 253 1.7 3.5 0.00 0.00 0.00 70 1013.2
20260507183555 52 320 3.5 5.2 0.00 0.00 0.00 70 1013.1
20260507183054 52 291 1.7 3.5 0.00 0.00 0.00 70 1013.1
20260507182552 52 227 1.7 3.5 0.00 0.00 0.00 69 1013.0
20260507182052 52 295 2.6 3.5 0.00 0.00 0.00 71 1013.0
20260507181552 52 16 0.9 2.6 0.00 0.00 0.00 71 1013.0
20260507181054 52 43 0.9 1.7 0.00 0.00 0.00 70 1013.0
20260507180554 52 232 2.6 4.3 0.00 0.00 0.00 69 1013.1
20260507180052 52 236 1.7 2.6 0.00 0.00 0.00 70 1013.1
20260507175553 53 256 2.6 5.2 0.00 0.00 0.00 70 1013.1
20260507175054 53 323 0.0 0.9 0.00 0.00 0.00 70 1013.0
20260507174554 53 223 1.7 3.5 0.00 0.00 0.00 70 1013.0
20260507174052 52 338 0.0 0.9 0.00 0.00 0.00 71 1013.0
20260507173552 53 252 1.7 4.3 0.00 0.00 0.00 72 1013.1
20260507173056 53 293 1.7 2.6 0.00 0.00 0.00 73 1013.1
20260507172553 53 88 1.7 1.7 0.00 0.00 0.00 73 1013.0
20260507172054 53 223 0.9 2.6 0.00 0.00 0.00 73 1013.1
20260507171553 53 277 1.7 3.5 0.00 0.00 0.00 72 1013.0
20260507171053 53 243 2.6 4.3 0.00 0.00 0.00 70 1013.0
20260507170556 53 219 1.7 4.3 0.00 0.00 0.00 71 1013.2
20260507170052 52 286 1.7 2.6 0.00 0.00 0.00 73 1013.1
20260507165553 52 261 2.6 4.3 0.00 0.00 0.00 74 1013.2
20260507165057 53 237 2.6 4.3 0.00 0.00 0.00 72 1013.2
20260507164555 53 261 1.7 4.3 0.00 0.00 0.00 72 1013.2
20260507164056 53 25 1.7 2.6 0.00 0.00 0.00 73 1013.2
20260507163554 53 176 0.0 0.9 0.00 0.00 0.00 72 1013.3
20260507163054 52 199 0.9 2.6 0.00 0.00 0.00 73 1013.3
20260507162554 52 307 0.9 2.6 0.00 0.00 0.00 73 1013.4
20260507162056 52 270 1.7 3.5 0.00 0.00 0.00 72 1013.4
20260507161553 51 271 0.9 1.7 0.00 0.00 0.00 76 1013.4
20260507161054 51 238 1.7 3.5 0.00 0.00 0.00 75 1013.3
20260507160554 51 312 1.7 3.5 0.00 0.00 0.00 77 1013.4
20260507160058 51 140 0.9 1.7 0.00 0.00 0.00 78 1013.4
20260507155555 50 170 1.7 3.5 0.00 0.00 0.00 79 1013.4
20260507155054 50 204 1.7 3.5 0.00 0.00 0.00 77 1013.5
20260507154554 49 105 0.0 0.9 0.00 0.00 0.00 80 1013.5
20260507154054 49 63 0.9 1.7 0.00 0.00 0.00 79 1013.5
20260507153554 49 49 1.7 1.7 0.00 0.00 0.00 79 1013.6
20260507153053 49 37 0.0 0.9 0.00 0.00 0.00 78 1013.6
20260507152555 48 209 0.9 0.9 0.00 0.00 0.00 80 1013.6
20260507152056 48 144 0.9 1.7 0.00 0.00 0.00 81 1013.5
20260507151555 47 224 0.9 1.7 0.00 0.00 0.00 78 1013.5
20260507151057 47 28 0.9 0.9 0.00 0.00 0.00 84 1013.6
20260507150553 47 114 0.9 0.9 0.00 0.00 0.00 85 1013.7
20260507150054 47 224 0.9 1.7 0.00 0.00 0.00 82 1013.7
20260507145557 47 76 0.9 1.7 0.00 0.00 0.00 87 1013.7
20260507145054 47 59 0.9 0.9 0.00 0.00 0.00 87 1013.6
20260507144556 47 31 0.9 1.7 0.00 0.00 0.00 87 1013.6
20260507144053 46 35 0.0 0.9 0.00 0.00 0.00 88 1013.5
20260507143554 46 234 0.0 0.0 0.00 0.00 0.00 90 1013.6
20260507143054 46 0 0.0 0.0 0.00 0.00 0.00 89 1013.7
20260507142553 46 124 0.0 0.0 0.00 0.00 0.00 90 1013.7
20260507142056 46 17 0.0 0.9 0.00 0.00 0.00 91 1013.7
20260507141553 46 81 0.9 1.7 0.00 0.00 0.00 91 1013.7
20260507141052 46 39 0.0 0.9 0.00 0.00 0.00 92 1013.7
20260507140554 46 16 0.9 0.9 0.00 0.00 0.00 93 1013.8
20260507140054 46 341 0.9 1.7 0.00 0.00 0.00 93 1013.8
20260507135554 46 47 0.0 0.0 0.00 0.00 0.00 93 1013.7
20260507135052 46 50 0.0 0.9 0.00 0.00 0.00 94 1013.7
20260507134556 45 47 0.0 0.0 0.00 0.00 0.00 93 1013.7
20260507134054 45 96 0.0 0.0 0.00 0.00 0.00 93 1013.8
20260507133553 46 40 1.7 1.7 0.00 0.00 0.00 94 1013.7
20260507133054 46 107 0.0 0.0 0.00 0.00 0.00 94 1013.8
20260507132556 46 24 0.0 0.9 0.00 0.00 0.00 95 1013.8
20260507132055 46 329 0.9 1.7 0.00 0.00 0.00 96 1014.0
20260507131555 45 87 0.9 0.9 0.00 0.00 0.00 96 1014.0
20260507131056 45 162 0.0 0.9 0.00 0.00 0.00 95 1014.0
20260507130553 45 93 0.0 0.0 0.00 0.00 0.00 96 1014.0
20260507130054 46 34 0.0 0.9 0.00 0.00 0.00 96 1014.1
20260507125552 46 19 0.0 0.0 0.00 0.00 0.00 96 1013.8
20260507125052 46 72 0.0 0.9 0.00 0.00 0.00 96 1013.8
20260507124110 46 24 0.9 0.9 0.00 0.00 0.00 96 1014.1
20260507123556 46 19 0.0 0.9 0.00 0.00 0.00 96 1014.1
20260507123054 46 30 0.0 0.9 0.00 0.00 0.00 96 1014.0
20260507122552 46 46 0.9 0.9 0.00 0.00 0.00 97 1014.0
20260507122053 46 73 0.9 0.9 0.00 0.00 0.00 96 1014.1